Home > Weather > Tulkarm > Past weeks

Flag for Palestinian Territories Weather for the Past 2 Weeks in Tulkarm, West Bank, Palestinian Territories

Now
59 °F

Clear.


Feels Like: 59 °F
Forecast: 52 / 70 °F
Wind: 5 mph from Northeast

Location: Dov Airport

Current Time: Feb 13, 2016 at 12:54:27 AM

Latest Report: Feb 12, 2016 at 9:50 PM


Visibility: 10 mi

Pressure: 30.18 "Hg

Humidity: 68%

Dew point: 48 °F

Location of TulkarmLocation

Historic Weather in Tulkarm — Graph

°F

Tulkarm Temperature Yesterday

Maximum temperature yesterday: 64 °F (at 12:50 PM)
Minimum temperature yesterday: 50 °F (at 5:50 AM)
Average temperature yesterday: 60 °F

High & Low Weather Summary for the Past Weeks

 TemperatureHumidityPressure
High75 °F (Feb 4, 12:50 PM)94% (Feb 8, 6:50 AM)30.42 "Hg (Feb 8, 6:50 AM)
Low45 °F (Jan 28, 10:50 PM)22% (Feb 4, 12:50 PM)29.89 "Hg (Feb 7, 5:50 AM)
Average58 °F66%30.16 "Hg
* Reported Jan 28 9:50 PM — Feb 12 9:50 PM, Tulkarm, Weather by CustomWeather, © 2016

Note: Actual official high and low records may vary slightly from our data, if they occured in-between our weather recording intervals... More about our weather records

Advertising

Tulkarm Weather History for the Previous 24 Hours

 ConditionsComfort  
Time TempWeatherWind HumidityBarometerVisibility
9:50 PM
Fri, Feb 12
59 °FClear.5 mph68%30.18 "Hg10 mi
8:50 PM61 °FClear.6 mph68%30.21 "Hg10 mi
7:50 PM61 °FClear.3 mph68%30.18 "Hg10 mi
6:50 PM61 °FClear.3 mph68%30.18 "Hg10 mi
5:50 PM61 °FClear.5 mph63%30.18 "Hg10 mi
4:50 PM63 °FSunny.7 mph64%30.18 "Hg10 mi
3:50 PM64 °FSunny.7 mph60%30.18 "Hg10 mi
2:50 PM64 °FSunny.8 mph60%30.18 "Hg10 mi
1:50 PM64 °FSunny.7 mph64%30.18 "Hg10 mi
12:50 PM64 °FSunny.7 mph60%30.18 "Hg10 mi
11:50 AM63 °FSunny.7 mph68%30.21 "Hg10 mi
10:50 AM63 °FSunny.6 mph64%30.24 "Hg10 mi
9:50 AM63 °FSunny.2 mph59%30.24 "Hg10 mi
8:50 AM59 °FSunny.3 mph68%30.24 "Hg10 mi
7:50 AM54 °FSunny.5 mph77%30.24 "Hg10 mi
6:50 AM50 °FSunny.7 mph88%30.24 "Hg10 mi
5:50 AM50 °FClear.7 mph88%30.21 "Hg5 mi
Weather by CustomWeather, © 2016

See weather overviewHow to use our weather pages